Address 0xca50c20fd17e222f2c29940e2e7c73ed4724e4c3

Overview

Balance:
2,300.713207500471405371 FTM

FTM Value:
$559.07 (@ $0.24/FTM)

Token:
Txn Hash
Block
From
To
Value [Txn Fee]
0x96a034aa27c7e821164012bad516dac798877380f93e20c1fea77c8febeafa7c94314972021-06-11 12:48:4712 days 2 hrs ago0xca50c20fd17e222f2c29940e2e7c73ed4724e4c3OUT Fantom Finance: Wrapped Fantom Token0 FTM0.002301985728
0x44bf34f68ef8e8a556db5c2f05a9026826b3a6e63eb982d06388b1f1f745da9094314552021-06-11 12:48:0612 days 2 hrs ago0xca50c20fd17e222f2c29940e2e7c73ed4724e4c3OUT 0xf491e7b69e4244ad4002bc14e878a34207e38c290 FTM0.012952873737
0x4d73c35a1ec77d982576f8e3c8bc2250ce41dc5c3d5e3e5ca4ef4e4dbf8f59ee94314472021-06-11 12:47:5812 days 2 hrs ago0xca50c20fd17e222f2c29940e2e7c73ed4724e4c3OUT 0x16327e3fbdaca3bcf7e38f5af2599d2ddc33ae520 FTM0.009925428552
0x7e1c0276bac33348553ffbe2fd8590bf928993154e137995a5916940738c872d94314372021-06-11 12:47:5012 days 2 hrs ago0xca50c20fd17e222f2c29940e2e7c73ed4724e4c3OUT 0x841fad6eae12c286d1fd18d1d525dffa75c7effe0 FTM0.003552217087
0x66a0dd5970a242448f135a8c9c78b4291041e3ba4f1880e3944f1b3a328533cd94314002021-06-11 12:47:1012 days 2 hrs ago0xca50c20fd17e222f2c29940e2e7c73ed4724e4c3OUT 0x5cc61a78f164885776aa610fb0fe1257df78e59b0 FTM0.003540927426
0x3f4f3e7919ed16ee5e37ddf54cd86a8e498bcfa0d9eff24aef16b77a428591e894313132021-06-11 12:45:3712 days 2 hrs ago0xca50c20fd17e222f2c29940e2e7c73ed4724e4c3OUT 0x1a2306d057533889cb57d9e55dc7f366eb270ee90 FTM0.032850927231
0x2dac2f1ff036c802c97d4ca2b576280c1b5cfb41655dcadc78a32b2b630607fb94313072021-06-11 12:45:2412 days 2 hrs ago0xca50c20fd17e222f2c29940e2e7c73ed4724e4c3OUT 0x6b55416f50e0b9d255aae7d58c46a184aca2f7c20 FTM0.021035387761
0x349ebada14b35362be747b6ed5c59721a0da3f3385ff7691c95458fe5d9f6f6089399022021-06-05 9:45:0318 days 5 hrs ago0xca50c20fd17e222f2c29940e2e7c73ed4724e4c3OUT 0x9a896d3c54d7e45b558bd5fff26bf1e8c031f93b0 FTM0.003677994892
0x6e2b2906c68879c60cad18c1527c4b08cc00ebdd58872dd4029210b76d3d0d8189396192021-06-05 9:40:2118 days 5 hrs ago0xca50c20fd17e222f2c29940e2e7c73ed4724e4c3OUT 0x9a896d3c54d7e45b558bd5fff26bf1e8c031f93b0 FTM0.00510391
0xb5c9800a24751d21d43a9a0e0564fd3a9c62a49c2519229c7b2aaa787f75e33c89394922021-06-05 9:38:1818 days 5 hrs ago0xca50c20fd17e222f2c29940e2e7c73ed4724e4c3OUT 0x9a896d3c54d7e45b558bd5fff26bf1e8c031f93b0 FTM0.00806141
0xf8b68566461892d74bdc49e611143d4748b96c7047fe0bf928878c95372ef35089394592021-06-05 9:37:4418 days 5 hrs ago0xca50c20fd17e222f2c29940e2e7c73ed4724e4c3OUT Fantom Finance: Wrapped Fantom Token1,000 FTM0.00356839
0xaed1db7f92f183e2e49cdafe0e0b05929db57cb66d502480ae0f409a0cba43d189393392021-06-05 9:35:4018 days 5 hrs ago0xca50c20fd17e222f2c29940e2e7c73ed4724e4c3OUT Fantom Finance: Wrapped Fantom Token0 FTM0.00316785
0x6cd3b63b93cac08ca17e85b68177f0b6d0601c248d28e535f695577295e2713363872002021-05-14 13:10:5840 days 2 hrs ago0xca50c20fd17e222f2c29940e2e7c73ed4724e4c3OUT 0x1a2306d057533889cb57d9e55dc7f366eb270ee90 FTM0.000932175288
0x23767c096d66fbe26765b4e1af83b9f5e8bfb3c942ab5e33158a19844ac467e863871722021-05-14 13:10:4040 days 2 hrs ago0xca50c20fd17e222f2c29940e2e7c73ed4724e4c3OUT 0x841fad6eae12c286d1fd18d1d525dffa75c7effe0 FTM0.000102809289
0xe55f06c7b6796b52f041569f33cf543063d907c6d74659a69c0bbcf0d1aae1ec63871442021-05-14 13:10:2240 days 2 hrs ago0xca50c20fd17e222f2c29940e2e7c73ed4724e4c3OUT 0xacaca07e398d4946ad12232f40f255230e73ca720 FTM0.000472501755
0xd2f71061f8c57d8848e4d8a4c6b78770364583ae2967a2cbc12ea6761e5f9eb562707232021-05-13 13:16:5541 days 2 hrs ago0xca50c20fd17e222f2c29940e2e7c73ed4724e4c3OUT 0xacaca07e398d4946ad12232f40f255230e73ca720 FTM0.00130483408
0xe7ec56f129f239e83f4995f398643c77eed2a381f9dc6a947170250fffec36eb60385932021-05-11 13:48:5243 days 1 hr ago0xca50c20fd17e222f2c29940e2e7c73ed4724e4c3OUT0xda58cec903aaf7e1748180aaace44d4408ffc8022,434 FTM0.000042
0x4c5f1a3bbf9f215164da5f98e4e0aac620fc2479574d83fbff1a933c386cbe6960385322021-05-11 13:48:1043 days 1 hr ago0xca50c20fd17e222f2c29940e2e7c73ed4724e4c3OUT 0x16327e3fbdaca3bcf7e38f5af2599d2ddc33ae520 FTM0.00023685
0x8ce53f5bbab9e92c3ff5ce4ee1a96b65d6976f048183ddc2999f7c6bd9e8d66960384322021-05-11 13:47:0243 days 1 hr ago0xca50c20fd17e222f2c29940e2e7c73ed4724e4c3OUT0xda58cec903aaf7e1748180aaace44d4408ffc8021 FTM0.000042
0x73f1f8b60cef9ebf2e58f8c164360b369f6656ae435dd025cec43a763fd34cd460379342021-05-11 13:40:5743 days 1 hr ago0xca50c20fd17e222f2c29940e2e7c73ed4724e4c3OUT 0xacaca07e398d4946ad12232f40f255230e73ca720 FTM0.000500896
0x63f82d419186ba55a855bab1ed388001b97f7a285752da20d982d4c72c35200b60377102021-05-11 13:38:0143 days 1 hr ago0xca50c20fd17e222f2c29940e2e7c73ed4724e4c3OUT 0x6b55416f50e0b9d255aae7d58c46a184aca2f7c20 FTM0.00626119923
0x2e2ba67b3a06963a91ac43c8e6615c1fdf00ce7ffa5764c358ea632c0099cc9360376052021-05-11 13:36:5143 days 1 hr ago0xca50c20fd17e222f2c29940e2e7c73ed4724e4c3OUT 0x9083ea3756bde6ee6f27a6e996806fbd37f6f0930 FTM0.00021815794
0xf7687c83a88c9a05b82cbca1691d87a7b77a8a7ee4f8f660ba5d208852597ac560375622021-05-11 13:36:2143 days 1 hr ago0xca50c20fd17e222f2c29940e2e7c73ed4724e4c3OUT 0x5cc61a78f164885776aa610fb0fe1257df78e59b0 FTM0.0001024335
0xf307a5ecfe67f393909a93465a28d006cf7887c610cd6c706cf6170774e6f8c659691162021-05-10 23:21:4743 days 16 hrs ago0xca50c20fd17e222f2c29940e2e7c73ed4724e4c3OUT 0xacaca07e398d4946ad12232f40f255230e73ca720 FTM0.001001792
0x86d1e4fdc8f03a186bfce6e23e07c0827444db42c070941c0c53ff24dcb946d858368072021-05-09 21:09:2744 days 18 hrs ago0xca50c20fd17e222f2c29940e2e7c73ed4724e4c3OUT 0x9083ea3756bde6ee6f27a6e996806fbd37f6f0930 FTM0.00014119248
[ Download CSV Export 
Latest 10 internal transactions
Parent Txn Hash Block From To Value
0x96a034aa27c7e821164012bad516dac798877380f93e20c1fea77c8febeafa7c94314972021-06-11 12:48:4712 days 2 hrs ago Fantom Finance: Wrapped Fantom Token0xca50c20fd17e222f2c29940e2e7c73ed4724e4c31,000 FTM
0x44bf34f68ef8e8a556db5c2f05a9026826b3a6e63eb982d06388b1f1f745da9094314552021-06-11 12:48:0612 days 2 hrs ago 0xf491e7b69e4244ad4002bc14e878a34207e38c290xca50c20fd17e222f2c29940e2e7c73ed4724e4c3724.890143711413450706 FTM
0x4d73c35a1ec77d982576f8e3c8bc2250ce41dc5c3d5e3e5ca4ef4e4dbf8f59ee94314472021-06-11 12:47:5812 days 2 hrs ago 0x16327e3fbdaca3bcf7e38f5af2599d2ddc33ae520xca50c20fd17e222f2c29940e2e7c73ed4724e4c3359.696839972931835138 FTM
0xf8b68566461892d74bdc49e611143d4748b96c7047fe0bf928878c95372ef35089394592021-06-05 9:37:4418 days 5 hrs ago 0xca50c20fd17e222f2c29940e2e7c73ed4724e4c3 Fantom Finance: Wrapped Fantom Token1,000 FTM
0xe7ec56f129f239e83f4995f398643c77eed2a381f9dc6a947170250fffec36eb60385932021-05-11 13:48:5243 days 1 hr ago 0xca50c20fd17e222f2c29940e2e7c73ed4724e4c30xda58cec903aaf7e1748180aaace44d4408ffc8022,434 FTM
0x4c5f1a3bbf9f215164da5f98e4e0aac620fc2479574d83fbff1a933c386cbe6960385322021-05-11 13:48:1043 days 1 hr ago 0x16327e3fbdaca3bcf7e38f5af2599d2ddc33ae520xca50c20fd17e222f2c29940e2e7c73ed4724e4c32,434.520534897535762601 FTM
0x8ce53f5bbab9e92c3ff5ce4ee1a96b65d6976f048183ddc2999f7c6bd9e8d66960384322021-05-11 13:47:0243 days 1 hr ago 0xca50c20fd17e222f2c29940e2e7c73ed4724e4c30xda58cec903aaf7e1748180aaace44d4408ffc8021 FTM
0x2ae6d76e2093ec0b5a9c19f3c3043d8c9a0b679462c9de4fa9a1c8a41f9af41a56748382021-05-08 13:37:3046 days 1 hr ago 0xf491e7b69e4244ad4002bc14e878a34207e38c290xca50c20fd17e222f2c29940e2e7c73ed4724e4c31,104.162722732972597418 FTM
0xf804e654b0bcca5469e70a942093ef22c8b246bd7ba9abce22ccdd02351b45e556675002021-05-08 12:11:0146 days 3 hrs ago 0x16327e3fbdaca3bcf7e38f5af2599d2ddc33ae520xca50c20fd17e222f2c29940e2e7c73ed4724e4c3111.576241504867958028 FTM
0xa286e03e4d28b59622946770bba649618542250ff018b1f3b91691beea71323056666732021-05-08 12:01:4446 days 3 hrs ago 0x8800528f6b9480dbbffd65fe6d8cc075bac7c1a80xca50c20fd17e222f2c29940e2e7c73ed4724e4c30.99 FTM
[ Download CSV Export 
Loading

Contract Name:
0 FTM

Compiler Version
0

Optimization Enabled:
0 FTM

Other Settings:
-NA-
Block Transaction Gas Used Reward
Age Block Fee Address BC Fee Address Voting Power Jailed Incoming
Validator ID :
0 FTM

Amount Staked
0

Amount Delegated
0

Staking Total
0

Staking Start Epoch
0

Staking Start Time
0

Proof of Importance
0

Origination Score
0

Validation Score
0

Active
0

Online
0

Downtime
0 s
Address Amount claimed Rewards Created On Epoch Created On
Block Uncle Number Difficulty Gas Used Reward
Loading
Loading
Make sure to use the "Vote Down" button for any spammy posts, and the "Vote Up" for interesting conversations.